Printer-friendly version

IAU Minor Planet Center

Minor Planet Center

MPEC 2007-V93 : 2007 VJ184

The following Minor Planet Electronic Circular may be linked-to from your own Web pages, but must not otherwise be redistributed electronically.


Read MPEC 2007-V92 Read MPEC 2007-V94


M.P.E.C. 2007-V93                                Issued 2007 Nov. 13, 14:25 UT

     The Minor Planet Electronic Circulars contain information on unusual
         minor planets and routine data on comets.  They are published
   on behalf of Commission 20 of the International Astronomical Union by the
          Minor Planet Center, Smithsonian Astrophysical Observatory,
                          Cambridge, MA 02138, U.S.A.

             Prepared using the Tamkin Foundation Computer Network

                              MPC@CFA.HARVARD.EDU
          URL http://www.cfa.harvard.edu/iau/mpc.html  ISSN 1523-6714

                                  2007 VJ184

Observations:
     K07VI4J* C2007 11 12.12625 23 39 41.40 +02 28 03.2          18.7 V EV093G96
     K07VI4J  C2007 11 12.13508 23 39 36.97 +02 28 58.1          18.6 V EV093G96
     K07VI4J  C2007 11 12.14396 23 39 32.47 +02 29 52.9          18.3 V EV093G96
     K07VI4J  C2007 11 12.15284 23 39 28.04 +02 30 48.9          18.7 V EV093G96
     K07VI4J  C2007 11 12.16955 23 39 19.65 +02 32 33.3          18.5 V EV093G96
     K07VI4J  C2007 11 12.17799 23 39 15.40 +02 33 25.7          18.0 V EV093G96
     K07VI4J  C2007 11 12.18645 23 39 11.16 +02 34 18.6          18.8 V EV093G96
     K07VI4J  C2007 11 12.19492 23 39 06.87 +02 35 11.4          18.8 V EV093G96
     K07VI4J  C2007 11 12.74941 23 34 40.09 +03 33 15.9          18.4 V EV093595
     K07VI4J  C2007 11 12.75360 23 34 38.04 +03 33 43.0          19.3 V EV093595
     K07VI4J  C2007 11 12.94208 23 33 02.69 +03 53 44.7          18.6 R EV093473
     K07VI4J  C2007 11 12.94285 23 33 02.30 +03 53 49.9          18.7 R EV093473
     K07VI4J 9C2007 11 13.12824 23 31 34.29 +04 13 52.5          18.9 R EV093673
     K07VI4J 9C2007 11 13.13194 23 31 31.99 +04 14 20.4                 EV093673
     K07VI4J 9C2007 11 13.13819 23 31 29.20 +04 14 56.3                 EV093673
     K07VI4J 9C2007 11 13.14306 23 31 26.63 +04 15 28.2                 EV093673
     K07VI4J tC2007 11 13.18577 23 31 04.26 +04 20 06.5          19.2 V EV093291
     K07VI4J tC2007 11 13.19216 23 31 00.99 +04 20 48.0          19.1 V EV093291
     K07VI4J tC2007 11 13.19607 23 30 58.94 +04 21 13.1          19.1 V EV093291
     K07VI4J  C2007 11 13.53640 23 28 10.94 +04 59 11.1                 EV093D21
     K07VI4J  C2007 11 13.53934 23 28 09.40 +04 59 29.5          18.5 R EV093D21
     K07VI4J  C2007 11 13.54228 23 28 07.82 +04 59 48.5          18.8 R EV093D21

Observer details:
291 LPL/Spacewatch II.  Observer J. V. Scotti.  1.8-m f/2.7 reflector + CCD.
473 Remanzacco.  Observers L. Donato, M. Gonano, V. Gonano, E. Guido,
    V. Santini, G. Sostero.  0.45-m f/4.4 Newtonian reflector + CCD.
595 Farra d'Isonzo.  Observers L. Bittesini, G. Lombardi, E. Pettarin,
    F. Piani.  Measurers L. Bittesini, G. Lombardi.  0.40-m f/4.5 reflector
    + CCD.
673 Table Mountain Observatory, Wrightwood.  Observer H. Rhoades.  0.61-m f/16
    Cassegrain + CCD.
D21 Shenton Park.  Observers P. Luckas, P. R. Holvorcem, M. Schwartz.
    Measurer P. R. Holvorcem.  0.35-m f/9.4 Schmidt-Cassegrain + CCD.
G96 Mt. Lemmon Survey.  Observer R. A. Kowalski.  Measurers E. C. Beshore,
    A. Boattini, G. J. Garradd, A. R. Gibbs, A. D. Grauer, R. E. Hill,
    R. A. Kowalski, S. M. Larson, R. H. McNaught.  1.5-m reflector + CCD.

Orbital elements:
2007 VJ184                                               Earth MOID = 0.0706 AU
Epoch 2007 Oct. 27.0 TT = JDT 2454400.5                 MPC
M 330.74359              (2000.0)            P               Q
n   0.44610562     Peri.   62.13795     -0.20701128     -0.95598134
a   1.6963322      Node    41.54682     +0.75055888     -0.29152929
e   0.4648537      Incl.   18.27334     +0.62754099     +0.03332209
P   2.21           H   21.1           G   0.15           U   9
Residuals in seconds of arc
071112 G96  0.1+  0.2+    071112 595  0.6-  0.1+    071113 291  0.3+  0.2-
071112 G96  0.2+  0.0     071112 595  0.4+  0.5+    071113 291  0.6+  0.1+
071112 G96  0.4-  0.5-    071112 473  0.0   0.6-    071113 291  0.0   0.1-
071112 G96  0.1+  0.2+    071112 473  0.1-  0.4-    071113 D21  0.5+  1.0+
071112 G96  0.3+  0.4+    071113 673  0.7+  0.7-    071113 D21  0.3+  0.2+
071112 G96  0.2+  0.1+    071113 673 (5.3-  3.3+)   071113 D21  0.4-  0.1+
071112 G96  0.4+  0.3+    071113 673  1.1+  1.1-
071112 G96  0.1-  0.2+    071113 673  0.1+  0.6-

Ephemeris:
2007 VJ184               a,e,i = 1.70, 0.46, 18                  q = 0.9078
Date    TT    R. A. (2000) Decl.     Delta      r     Elong.  Phase     V
2007 11 06    00 24.55   -06 43.2    0.162    1.119   139.1    35.4    18.8
2007 11 16    23 07.20   +09 34.5    0.135    1.058   117.6    55.9    18.9
2007 11 26    21 33.87   +27 53.8    0.139    1.004    93.2    78.9    19.6
2007 12 06    20 01.32   +39 08.4    0.168    0.960    76.4    93.8    20.5
2007 12 16    18 45.66   +42 56.6    0.209    0.928    68.4    99.5    21.1
2007 12 26    17 51.60   +42 25.8    0.255    0.910    66.1    99.1    21.5
2008 01 05    17 16.49   +39 48.1    0.298    0.909    67.0    95.4    21.7
2008 01 15    16 54.93   +36 21.1    0.337    0.925    70.1    89.8    21.7
2008 01 25    16 41.66   +32 44.3    0.368    0.955    74.7    83.5    21.8
2008 02 04    16 32.55   +29 18.2    0.389    0.999    80.6    76.8    21.7
2008 02 14    16 23.96   +26 10.8    0.400    1.052    87.9    69.8    21.7
2008 02 24    16 12.96   +23 18.0    0.403    1.112    96.8    62.1    21.6
2008 03 05    15 57.14   +20 30.5    0.400    1.177   107.6    53.4    21.4
2008 03 15    15 34.72   +17 32.0    0.397    1.244   120.5    43.5    21.2
2008 03 25    15 05.85   +14 05.5    0.402    1.313   135.2    32.3    21.1
2008 04 04    14 33.30   +10 08.0    0.422    1.383   150.5    20.9    21.0
2008 04 14    14 01.87   +05 55.8    0.463    1.451   162.7    11.8    21.0
2008 04 24    13 36.06   +01 55.5    0.528    1.519   163.3    11.0    21.3
2008 05 04    13 17.77   -01 35.4    0.615    1.585   154.1    16.2    21.9

Timothy B. Spahr             (C) Copyright 2007 MPC           M.P.E.C. 2007-V93

Read MPEC 2007-V92 Read MPEC 2007-V94


Our Web policy. Index to the CBAT/MPC/ICQ pages.


Valid HTML 4.01!